Location: Newark
(52.2090°N, 4.1550°W)
Time: 05:59:37
(UTC+00:00)

Explorer 7 - Pass Details

Date: 20 September 2019
Orbit: 485 x 680 km, 50.3° (Epoch: 22 October)

Event Time Altitude Azimuth Distance (km) Brightness Sun altitude
Exits shadow 03:33:45 54° 205° (SSW) 824 7.3 -21.7°
Maximum altitude 03:33:53 54° 198° (SSW) 823 7.3 -21.7°
Drops below altitude 10° 03:38:40 10° 122° (ESE) 2,117 10.1 -21.1°
Sets 03:41:05 0° 118° (ESE) 3,028 11.0 -20.8°
